Regional Weather Roundup
Issued by NWS Kansas City/Pleasant Hill, MO

Home | Current Version | Previous Version | Graphics & Text | Print | Product List | Glossary Off
Versions: 1 2 3 4 5 6 7 8 9 10 11 12 13 14 15 16 17 18 19 20 21 22 23 24 25 26 27 28 29 30 31 32 33 34 35 36 37 38 39 40 41 42 43 44 45 46 47 48 49 50

000
ASUS43 KEAX 190604
RWREAX

WEATHER ROUNDUP FOR EASTERN KANSAS AND NORTHWEST MISSOURI
NATIONAL WEATHER SERVICE KANSAS CITY/PLEASANT HILL MO
100 AM CDT FRI SEP 19 2014

KSZ040-057-103>105-MOZ028-029-037-043-190700-
...KANSAS CITY METROPOLITAN AREA...

CITY           SKY/WX    TMP DP  RH WIND       PRES   REMARKS
K.C. INTL      CLEAR     61  60  97 SE8       30.02S
6HR MIN TEMP:  60; 6HR MAX TEMP:  66;

K.C. DOWNTOWN  CLEAR     62  60  93 E5        30.02R FOG
6HR MIN TEMP:  62; 6HR MAX TEMP:  68;

LEES SUMMIT    CLEAR     61  60  97 CALM      30.04R
6HR MIN TEMP:  61; 6HR MAX TEMP:  66;

OLATHE - IXD   CLEAR     61  61 100 SE6       30.03S
6HR MIN TEMP:  61; 6HR MAX TEMP:  66;

OLATHE - OJC   CLEAR     61  60  97 SE5       30.02R
6HR MIN TEMP:  61; 6HR MAX TEMP:  66;

LAWRENCE       CLEAR     58  56  93 E6        30.02R FOG

$$

MOZ001>008-011>017-020>025-030>033-038>040-044>046-053-054-190700-
...NORTHERN AND CENTRAL MISSOURI...

CITY           SKY/WX    TMP DP  RH WIND       PRES   REMARKS
ST. JOSEPH     CLEAR     60  58  92 SE7       30.02S
6HR MIN TEMP:  58; 6HR MAX TEMP:  67;

MOSBY          CLEAR     57  57 100 CALM      30.03S FOG
WHITEMAN AFB   CLEAR     59  59  98 SE3       30.03S
6HR MIN TEMP:  59; 6HR MAX TEMP:  67;

CLINTON        CLEAR     63  63 100 CALM      30.04S FOG
SEDALIA        FOG       60  58  92 E7        30.04F VSB 1/4
6HR MIN TEMP:  59; 6HR MAX TEMP:  69;

WARSAW         NOT AVBL
MARSHALL       CLEAR     63  63 100 E5        30.06S FOG
CHILLICOTHE      N/A     61  57  87 SE3       30.06S
6HR MIN TEMP:  60; 6HR MAX TEMP:  69;

KIRKSVILLE     CLEAR     57  53  86 E6        30.08S
6HR MIN TEMP:  53; 6HR MAX TEMP:  65;


$$

MOZ041-047>049-056>058-063>065-088>090-097-190700-
...EASTERN AND SOUTHERN MISSOURI...

CITY           SKY/WX    TMP DP  RH WIND       PRES   REMARKS
ST. LOUIS INTL CLEAR     61  54  77 E6        30.08S
6HR MIN TEMP:  61; 6HR MAX TEMP:  71;

SPIRIT OF STL  CLEAR     53  53 100 CALM      30.07R FOG
COLUMBIA       PTCLDY    59  57  93 E5          N/A
JEFFERSON CITY CLOUDY    61  58  90 CALM      30.06S
MEXICO         CLEAR    N/A N/A N/A CALM      30.07F
ROLLA          CLEAR     58  57  97 E5        30.06S FOG
LEBANON        FOG       57  55  94 CALM      30.07S VSB 1/4
OSAGE BEACH    CLEAR     59  55  88 CALM      30.06S
SPRINGFIELD    CLEAR     63  60  90 SE9       30.04F
BRANSON        CLOUDY    64  63  94 CALM      30.06S FOG
NEVADA         CLEAR     63  61  94 SE7       30.03
JOPLIN         MOCLDY    64  61  90 SE8       30.02F
WEST PLAINS    FOG       57  55  93 CALM      30.07S VSB 1/4

$$

IAZ060-094-KSZ022-034>040-054-083-096-NEZ052-066-093-190700-
...KANSAS...SOUTHEAST NEBRASKA AND IOWA...

CITY           SKY/WX    TMP DP  RH WIND       PRES   REMARKS
TOPEKA         CLEAR     62  62 100 E3        30.01S
6HR MIN TEMP:  61; 6HR MAX TEMP:  67;

MANHATTAN      MOCLDY    66  62  87 SE5       29.98S
EMPORIA        CLEAR     63  63 100 SE9       29.99F
CHANUTE        CLEAR     65  64  97 SE7       30.00S
WICHITA        CLEAR     67  63  87 SE8       29.98R
OMAHA          PTCLDY    62  57  83 SE13      29.99S
LINCOLN        MOCLDY    64  60  87 S14       29.98S
FALLS CITY     CLEAR     58  57  97 SE5       30.00S FOG
LAMONI         CLEAR     59  55  87 SE7       30.04F
DES MOINES     CLEAR     60  55  83 SE8       30.04S

$$



USA.gov is the U.S. government's official web portal to all federal, state and local government web resources and services.